Regional Weather Roundup
Issued by NWS Sterling, VA

Home | Current Version | Previous Version | Text Only | Print | Product List | Glossary Off
Versions: 1 2 3 4 5 6 7 8 9 10 11 12 13 14 15 16 17 18 19 20 21 22 23 24 25 26 27 28

000
ASUS41 KLWX 270411
RWRLWX

REGIONAL WEATHER ROUNDUP
NATIONAL WEATHER SERVICE BALTIMORE MD/WASHINGTON DC
1200 AM EDT THU APR 27 2017

Note: "FAIR" indicates few or no clouds below 12,000 feet
with no significant weather and/or obstructions to visibility.
 TC=TEMPERATURE CELSIUS

 * =Non NWS site. Station does not report precipitation (e.g. rain,
    snow, etc.), thunder, or fog.

DCZ001-MDZ009-015-VAZ040>042-051-053>054-270500-
WASHINGTON METRO

CITY           SKY/WX    TMP DP  RH WIND       PRES   REMARKS
WASHINGTON NAT CLEAR     61  58  90 S3        29.85R
DULLES         CLEAR     60  57  89 S3        29.84R
ANDREWS AFB    CLEAR     57  56  95 CALM      29.84R
FT BELVOIR     CLEAR     58  57  96 CALM      29.84R
QUANTICO       CLEAR     62  61  96 SE6       29.84S
COLLEGE PARK*    N/A     55  55  97 CALM      29.84S
LEESBURG*      CLEAR     61  61 100 CALM      29.85S
MANASSAS*        N/A     58  57  97 CALM      29.84R

$$

MDZ006>007-011-014-270500-
BALTIMORE METRO

CITY           SKY/WX    TMP DP  RH WIND       PRES   REMARKS
BWI AIRPORT    PTCLDY    57  57 100 CALM      29.84S
MD SCIENCE CTR   N/A     60  56  86 MISG      29.85R
MARTIN STATE   CLEAR     59  59 100 CALM      29.86S
ANNAPOLIS      CLEAR     58  57  97 CALM      29.84S FOG
FORT MEADE*    CLEAR     52  50  93 CALM      29.87R

$$

MDZ012-015-019>023-270500-
MARYLAND EASTERN SHORE

CITY           SKY/WX    TMP DP  RH WIND       PRES   REMARKS
OCEAN CITY     FOG       52  52 100 CALM      29.87S VSB 1/2
SALISBURY      FOG       56  56 100 E3        29.86S VSB 1/4
BAY BRIDGE AP* CLEAR     57  57 100 SE5       29.85S FOG
CAMBRIDGE*     FOG       55  55 100 SE3       29.86S VSB 1/2
EASTON*        CLEAR     58  56  94 SE3       29.89S

$$

MDZ017>025-270500-
SOUTHERN MARYLAND

CITY           SKY/WX    TMP DP  RH WIND       PRES   REMARKS
PATUXENT RIVER CLEAR     59  59 100 SE3       29.85S
ST INIGOES     CLEAR     58  57  97 E3        29.84S
LEONARDTOWN*   CLEAR     57  55  94 E5        29.86S

$$

MDZ003>005-270500-
NORTH CENTRAL MARYLAND

CITY           SKY/WX    TMP DP  RH WIND       PRES   REMARKS
FREDERICK*     NOT AVBL
HAGERSTOWN APT CLEAR     61  57  87 CALM      29.82R
WESTMINSTER*   CLEAR     59  57  94 CALM      29.85R

$$

MDZ501>502-270500-
WESTERN MARYLAND

CITY           SKY/WX    TMP DP  RH WIND       PRES   REMARKS
OAKLAND*       CLEAR     55  54  94 SE14      29.83S
CUMBERLAND*    CLEAR     63  59  88 CALM      29.83S

$$

VAZ025>031-270500-
SHENANDOAH VALLEY

CITY           SKY/WX    TMP DP  RH WIND       PRES   REMARKS
WINCHESTER*    CLEAR     55  55 100 CALM      29.81F
FRONT ROYAL*   CLEAR     59  59 100 CALM      29.80S
LURAY*         CLEAR     59  57  94 CALM      29.81S
NEW MARKET*    CLEAR     57  56  96 CALM      29.80S
STAUNTON*      CLEAR     58  56  93 CALM      29.84R
WAYNESBORO*    CLEAR     64  60  90 CALM      29.83S

$$

WVZ021-048>050-054>055-270500-
EASTERN WEST VIRGINIA PANHANDLE

CITY           SKY/WX    TMP DP  RH WIND       PRES   REMARKS
MARTINSBURG    CLEAR     59  56  89 E3        29.81S
PETERSBURG*    CLEAR     59  58  97 CALM      29.79S

$$

VAZ036>039-050-270500-
CENTRAL FOOTHILLS

CITY           SKY/WX    TMP DP  RH WIND       PRES   REMARKS
CHARLOTTESVILL CLEAR     66  60  81 CALM      29.81S
CULPEPER*      CLEAR     58  58  99 CALM      29.84R
ORANGE*        CLEAR     57  57 100 CALM      29.82R
GORDONSVILLE*  CLEAR     59  59 100 CALM      29.81S
WARRENTON*     CLEAR     60  56  85 NE3       29.82S

$$

VAZ055>057-270500-
NORTH AND CENTRAL PIEDMONT

CITY           SKY/WX    TMP DP  RH WIND       PRES   REMARKS
FREDERICKSBRG* CLEAR     60  60 100 CALM      29.83R
STAFFORD*      CLEAR     57  57 100 CALM      29.87S

$$

NCZ024-NYZ072-PAZ021-071-VAZ022-071-270500-
OTHER REGIONAL OBSERVATIONS

CITY           SKY/WX    TMP DP  RH WIND       PRES   REMARKS
NEW YORK CITY  CLOUDY    59  58  96 CALM      29.87S FOG
PHILADELPHIA   CLOUDY    62  56  80 S3        29.85S
PITTSBURGH     PTCLDY    68  57  68 S5        29.70S
ROANOKE        CLEAR     67  60  78 SE7       29.84S
RICHMOND       CLEAR     61  60  97 E5        29.83S
RALEIGH        PTCLDY    69  62  78 S7        29.83F

$$

ANZ530>537-270500-
MARINE OBSERVATIONS

STATION/POSITION TIME  TEMP    WIND        PRES
                       AIR SEA DIR/SP/G
                 (UTC) (F)     (DEG/KT/KT) (MB)
THOMAS PT LIGHT  0400   58 57  170/  4/  5   N/A
BALT KEY BRIDGE  0348   60     160/  5/  5 1010.6R
COVE POINT       0348   59     170/  5/  6 1011.3S
LEWISETTA        0348   61 62  160/  5/  6 1010.5R
SOLOMONS ISLAND  0348   59 60  120/  4/  4   N/A
PINEY POINT      0348          150/  9/  9   N/A

$$





USA.gov is the U.S. government's official web portal to all federal, state and local government web resources and services.